Wind_Speed
42 42 42 42 42 42 42 41 41 41 41 41 41 40 40 41 41 42 43 43 44 44 44 44 45 47 47 47 47 46 46 46 46 45 46 47 45 46 48 50 51 52 51
40 40 40 40 40 39 39 39 39 39 39 39 39 39 39 39 39 40 41 41 41 40 40 41 42 42 42 42 42 42 41 40 39 39 40 42 44 43 44 46 48 50 50
37 37 37 37 36 37 37 37 37 37 37 37 37 37 37 37 38 39 38 38 37 37 37 37 38 38 38 37 37 36 35 35 35 35 34 34 36 39 41 43 45 47 49
34 34 34 34 34 34 35 35 35 35 35 35 35 35 36 36 37 37 36 35 35 34 35 35 35 35 34 33 33 32 30 29 30 30 29 29 31 34 36 38 41 44 45
32 32 32 32 32 32 32 32 32 33 33 33 33 34 34 35 35 35 34 34 33 33 33 32 32 31 30 30 29 28 26 25 25 25 26 27 29 32 34 36 38 40 43
28 29 29 29 29 29 29 29 30 30 31 31 31 32 32 33 33 33 32 31 31 30 30 29 29 28 28 27 26 25 24 24 24 24 24 26 27 29 31 34 37 39 42
26 27 27 27 27 27 27 27 27 28 29 29 30 30 30 31 31 30 30 29 28 28 27 28 27 27 27 26 26 26 25 25 24 25 25 26 28 30 32 34 36 39 42
24 25 24 23 23 24 24 24 25 26 27 27 28 28 28 29 28 28 28 27 27 27 27 27 27 27 27 26 26 26 26 26 26 26 27 29 30 32 34 37 39 42 44
22 21 21 21 21 21 22 22 23 24 25 25 26 27 27 27 27 27 27 26 26 27 27 27 27 27 27 27 28 28 28 28 29 30 31 32 34 36 38 40 42 45 47
20 20 19 20 20 20 21 22 23 23 24 24 25 25 26 26 26 26 26 26 27 27 28 28 28 28 29 29 30 30 31 32 32 33 34 36 37 39 41 43 45 47 50
19 19 19 19 19 20 20 21 22 23 23 24 24 25 25 25 26 26 27 27 28 28 29 29 30 30 31 31 32 33 34 35 36 37 38 39 41 43 45 47 49 50 52
19 19 19 19 19 20 20 21 22 23 24 24 24 25 25 26 26 27 27 28 29 30 30 31 32 33 33 34 35 35 36 37 39 40 41 43 45 46 48 50 51 52 53
20 20 20 20 20 21 21 22 22 23 24 25 25 26 26 27 28 28 29 30 31 31 32 33 34 34 35 36 37 38 39 40 42 43 45 46 47 49 50 51 52 53 54
21 21 21 21 21 22 23 23 24 24 25 26 26 27 27 28 29 30 30 31 32 33 34 34 35 36 37 38 39 41 42 43 44 46 48 49 50 51 52 53 53 54 53
22 22 22 23 23 23 24 25 25 26 27 27 27 28 29 29 30 31 31 32 33 34 35 36 37 38 39 40 41 43 44 46 47 49 50 51 52 54 54 55 54 54 52
24 24 24 25 25 25 26 26 27 28 28 28 29 29 30 31 31 32 33 33 34 35 36 37 38 39 40 42 43 45 47 48 50 51 52 54 55 55 56 55 54 52 50
27 27 27 27 27 28 28 29 29 29 30 30 30 31 31 32 32 33 34 35 35 36 37 38 39 40 42 43 45 47 49 50 51 53 55 56 56 56 56 54 52 50 49
29 29 29 29 29 30 30 30 30 31 31 31 32 32 32 33 34 34 35 36 37 38 38 39 40 42 43 45 47 48 50 52 53 55 56 56 56 55 53 51 49 48 46
31 31 31 31 31 32 32 32 32 32 32 33 33 34 34 35 35 36 36 37 38 39 39 40 41 43 44 46 48 50 51 53 54 55 56 55 54 52 50 49 47 46 44
32 32 33 33 33 33 33 33 33 33 34 34 34 35 35 36 37 37 38 38 39 40 40 41 42 44 46 48 49 51 52 54 55 55 54 53 51 50 49 47 46 44 42
34 34 34 34 34 34 34 34 34 34 35 35 35 36 36 37 38 38 38 39 39 40 41 42 44 45 47 49 50 52 53 54 54 54 52 51 50 49 47 46 44 42 40
35 35 35 35 35 34 35 35 35 35 35 35 36 37 37 38 39 39 39 40 40 41 42 43 45 46 48 50 51 52 53 53 53 52 50 50 49 47 46 44 42 40 38
34 34 34 34 34 35 35 35 36 36 36 36 37 38 38 38 39 39 39 40 41 41 42 43 45 47 49 50 51 52 52 52 51 50 49 48 47 46 44 42 40 38 37
34 34 35 35 35 35 35 36 36 36 37 38 38 39 39 39 39 39 39 40 40 41 43 45 46 48 49 50 51 52 51 51 50 49 47 46 45 44 42 40 38 37 36
33 34 34 34 35 35 35 36 36 37 38 38 39 39 38 38 38 39 39 40 41 42 44 45 46 48 49 50 51 51 50 50 48 47 45 44 42 41 40 38 37 36 35
32 32 33 33 34 34 35 35 36 37 37 38 38 38 38 38 38 39 40 40 41 42 43 44 46 47 49 50 50 49 49 48 47 46 45 42 41 40 39 37 36 35 34
Wind_Direction
259 261 263 265 267 269 271 273 275 277 279 280 280 282 284 286 288 291 293 295 297 298 300 301 302 303 302 300 299 295 290 286 282 278 273 270 267 263 259 259 260 264 265
259 261 264 266 268 270 271 273 275 277 278 279 280 282 284 287 290 293 296 297 298 300 303 304 306 308 308 306 303 299 293 288 287 281 279 275 269 267 265 263 263 265 266
261 263 265 267 269 271 273 274 275 277 278 280 281 283 286 288 292 296 298 299 300 301 304 307 310 311 311 310 308 305 299 292 290 287 284 279 273 270 269 267 267 268 270
262 264 266 268 270 272 273 274 276 278 279 281 283 285 287 290 294 297 298 299 301 302 305 308 311 313 313 313 312 310 306 301 298 293 290 285 280 276 273 272 271 273 274
262 264 266 268 270 272 274 275 277 279 280 282 285 287 289 292 294 297 298 300 301 303 305 308 311 314 315 315 315 313 311 308 305 300 294 290 286 283 279 277 276 277 279
261 263 266 268 270 273 275 278 279 280 282 284 287 289 291 293 295 297 298 300 301 302 305 307 310 313 315 316 316 315 314 311 306 302 298 292 288 286 284 282 281 281 282
260 263 266 268 271 273 276 279 280 282 284 287 289 291 292 294 296 297 299 300 300 302 305 307 309 311 312 314 315 314 313 311 309 305 301 297 294 292 290 288 287 286 286
261 264 266 268 272 275 277 280 282 284 286 288 290 292 293 295 297 298 299 299 300 303 305 307 309 311 312 313 314 314 312 310 308 305 303 300 297 294 292 291 290 290 289
261 263 265 268 272 276 279 282 284 286 288 290 291 293 295 297 298 298 298 299 301 303 306 307 309 310 311 312 312 311 310 308 306 304 302 300 298 296 295 294 293 292 292
259 262 265 269 273 277 281 283 286 288 290 292 294 295 296 297 298 298 299 301 303 304 306 307 308 310 310 311 310 309 308 307 305 304 303 302 300 299 298 297 296 295 295
260 263 266 270 274 278 281 284 286 289 291 293 295 297 298 299 299 299 300 302 304 306 307 308 309 309 309 309 309 309 308 306 305 305 304 303 302 301 300 299 298 298 297
260 263 267 271 275 279 283 286 288 290 293 295 296 297 298 299 299 300 302 304 306 307 308 308 308 309 309 309 309 308 308 307 306 305 305 304 303 302 302 301 300 300 298
262 264 268 271 275 280 283 286 289 291 293 294 295 297 299 300 301 302 303 305 306 307 308 308 308 308 308 308 309 309 308 308 307 307 306 305 305 304 303 303 302 301 299
263 265 268 271 275 279 282 285 288 290 293 294 296 297 299 301 302 303 304 305 306 306 307 308 308 308 309 309 309 310 309 309 309 308 308 307 306 305 305 304 303 302 300
264 266 269 272 275 278 281 284 286 289 291 294 295 297 298 300 301 302 304 305 306 307 307 308 308 309 310 310 310 311 311 311 310 310 310 309 308 307 305 304 303 302 299
264 267 269 272 275 277 280 283 285 287 290 292 294 296 298 299 300 302 303 305 306 307 308 308 309 310 310 311 311 312 312 312 312 312 311 310 309 308 306 305 303 301 299
264 267 270 272 275 277 280 282 284 286 288 290 293 296 298 299 301 302 303 305 306 308 308 309 310 311 311 312 312 313 313 313 314 313 313 312 310 309 308 306 304 301 299
264 266 269 272 274 277 279 281 284 286 288 290 292 295 297 299 301 302 304 305 306 307 308 309 310 311 312 313 313 314 314 315 315 315 314 313 312 311 309 307 305 303 300
265 267 269 272 274 277 279 281 283 286 288 290 292 294 297 298 300 302 303 305 306 307 307 308 310 311 312 313 314 315 315 316 316 316 316 315 314 312 311 309 307 305 302
266 268 269 271 274 276 278 281 283 285 287 290 292 294 296 298 300 302 303 304 306 307 307 308 310 312 313 314 315 316 316 317 318 318 317 316 315 314 313 311 309 307 304
267 268 270 272 274 276 278 280 283 285 287 289 291 293 296 298 299 301 302 304 305 306 307 309 310 312 314 315 316 317 317 318 319 319 319 318 317 316 315 313 311 309 306
268 269 271 273 274 276 278 280 282 285 287 289 291 293 295 297 299 300 302 303 304 306 307 309 311 312 314 315 317 318 318 319 320 320 320 320 319 318 317 316 314 311 308
268 269 271 273 274 276 278 280 282 284 287 289 291 294 295 297 298 299 301 303 304 306 307 309 311 313 315 316 317 318 319 320 320 320 320 320 320 320 319 317 316 314 312
268 270 271 273 275 276 278 280 281 284 287 289 292 293 295 297 298 299 301 303 304 306 308 310 312 313 315 317 318 319 319 320 320 321 321 321 320 320 320 319 317 316 314
269 270 272 273 275 276 278 279 281 284 287 290 292 294 295 296 297 299 301 302 304 306 309 310 312 314 315 317 318 319 320 320 320 321 321 321 321 320 320 319 318 316 315
270 271 273 274 275 276 278 279 281 284 287 290 292 294 295 297 298 299 301 302 305 307 309 311 313 315 316 317 318 319 320 320 321 321 321 321 321 321 320 320 318 316 315
Height
5738 5738 5738 5738 5737 5737 5736 5735 5733 5732 5730 5727 5725 5723 5720 5717 5714 5710 5706 5701 5696 5691 5685 5679 5672 5665 5658 5651 5644 5637 5632 5627 5624 5624 5623 5624 5625 5627 5629 5631 5633 5635 5637
5728 5728 5728 5728 5727 5727 5726 5725 5723 5722 5720 5717 5715 5713 5710 5707 5704 5700 5696 5691 5686 5680 5675 5668 5662 5654 5647 5640 5633 5627 5621 5617 5614 5613 5612 5612 5613 5615 5617 5619 5621 5623 5624
5718 5718 5718 5718 5718 5717 5716 5715 5714 5712 5710 5708 5705 5703 5700 5697 5694 5690 5685 5681 5676 5671 5665 5659 5653 5645 5638 5631 5625 5619 5613 5609 5607 5605 5604 5603 5604 5605 5606 5608 5610 5611 5612
5708 5709 5709 5709 5708 5708 5707 5706 5704 5702 5701 5698 5696 5694 5691 5688 5684 5680 5676 5671 5666 5662 5656 5651 5644 5638 5631 5625 5618 5613 5607 5604 5601 5598 5597 5596 5597 5597 5598 5599 5600 5600 5600
5700 5700 5700 5700 5699 5699 5698 5696 5695 5693 5691 5689 5687 5684 5682 5678 5675 5671 5667 5662 5658 5653 5648 5643 5637 5631 5625 5619 5614 5608 5603 5599 5596 5594 5592 5591 5591 5590 5590 5590 5590 5589 5589
5691 5692 5692 5691 5691 5690 5689 5687 5686 5684 5682 5680 5678 5675 5672 5669 5666 5662 5658 5654 5650 5645 5641 5636 5631 5626 5620 5615 5609 5604 5600 5596 5593 5590 5588 5587 5585 5584 5583 5582 5580 5580 5578
5683 5684 5684 5683 5682 5682 5680 5679 5678 5676 5674 5672 5670 5667 5664 5661 5657 5654 5650 5646 5642 5638 5634 5630 5625 5620 5615 5610 5605 5600 5596 5592 5589 5586 5583 5581 5579 5577 5575 5573 5571 5569 5566
5676 5676 5676 5675 5675 5674 5673 5671 5670 5668 5666 5664 5661 5659 5656 5653 5649 5646 5642 5639 5635 5631 5627 5623 5619 5614 5609 5604 5600 5596 5591 5587 5584 5580 5577 5575 5572 5569 5567 5564 5561 5557 5554
5669 5669 5668 5668 5667 5667 5665 5664 5663 5661 5659 5656 5654 5651 5648 5645 5642 5639 5635 5632 5628 5625 5621 5616 5612 5608 5603 5599 5594 5590 5586 5582 5578 5574 5571 5567 5563 5560 5556 5553 5549 5545 5541
5662 5662 5662 5661 5661 5660 5659 5657 5656 5654 5652 5649 5647 5644 5641 5638 5635 5631 5628 5625 5621 5618 5614 5610 5605 5601 5597 5592 5588 5583 5579 5575 5570 5566 5562 5558 5554 5549 5545 5541 5536 5531 5526
5655 5655 5655 5655 5654 5653 5652 5651 5649 5647 5645 5643 5640 5637 5634 5631 5628 5625 5621 5618 5614 5610 5606 5602 5598 5594 5589 5585 5580 5576 5571 5567 5562 5557 5552 5548 5543 5538 5533 5527 5522 5516 5510
5649 5649 5649 5648 5648 5647 5646 5644 5642 5640 5638 5636 5633 5630 5627 5624 5621 5618 5615 5611 5607 5603 5599 5595 5591 5586 5582 5577 5572 5567 5562 5557 5552 5547 5542 5537 5531 5525 5519 5513 5507 5500 5494
5643 5643 5643 5642 5641 5640 5639 5637 5636 5634 5631 5629 5626 5623 5620 5617 5614 5611 5607 5603 5600 5596 5591 5587 5583 5578 5573 5568 5563 5558 5553 5547 5542 5536 5530 5524 5518 5511 5505 5498 5491 5484 5477
5636 5636 5636 5635 5635 5633 5632 5631 5629 5627 5624 5622 5619 5616 5613 5610 5607 5603 5600 5596 5592 5588 5583 5579 5574 5569 5564 5559 5554 5548 5542 5536 5530 5524 5517 5511 5504 5497 5490 5483 5475 5468 5461
5630 5629 5629 5628 5627 5626 5625 5623 5622 5620 5617 5615 5612 5609 5606 5603 5599 5596 5592 5588 5584 5580 5575 5570 5565 5560 5555 5549 5544 5538 5531 5525 5518 5511 5504 5496 5489 5481 5474 5467 5459 5452 5445
5622 5622 5621 5621 5620 5619 5617 5616 5614 5612 5609 5607 5604 5601 5598 5595 5591 5588 5584 5580 5575 5571 5566 5561 5556 5551 5545 5539 5533 5526 5520 5513 5505 5498 5490 5482 5474 5466 5457 5450 5443 5436 5429
5614 5614 5613 5613 5612 5611 5609 5608 5606 5604 5601 5599 5596 5593 5590 5586 5583 5579 5575 5571 5566 5562 5557 5552 5547 5541 5535 5529 5522 5515 5508 5500 5492 5484 5476 5467 5458 5450 5441 5433 5426 5420 5414
5606 5605 5605 5604 5603 5602 5601 5599 5597 5595 5593 5590 5587 5584 5581 5578 5574 5570 5566 5562 5557 5553 5548 5542 5537 5531 5525 5518 5511 5504 5496 5488 5479 5471 5462 5452 5443 5435 5426 5418 5411 5404 5399
5597 5597 5596 5595 5594 5593 5592 5590 5588 5586 5584 5581 5578 5575 5572 5569 5565 5561 5557 5552 5548 5543 5538 5532 5527 5521 5514 5507 5500 5492 5484 5475 5467 5457 5448 5438 5429 5420 5412 5404 5397 5390 5385
5588 5587 5587 5586 5585 5584 5582 5581 5579 5577 5574 5572 5569 5566 5563 5559 5555 5551 5547 5543 5538 5533 5528 5522 5516 5510 5503 5496 5488 5480 5472 5463 5454 5444 5434 5425 5416 5407 5399 5391 5384 5378 5372
5578 5578 5577 5576 5575 5574 5573 5571 5569 5567 5565 5562 5559 5556 5553 5550 5546 5542 5537 5533 5528 5523 5517 5512 5506 5499 5492 5484 5476 5468 5459 5450 5441 5431 5422 5412 5403 5395 5387 5379 5372 5366 5360
5568 5568 5567 5566 5565 5564 5563 5561 5559 5557 5555 5552 5550 5547 5543 5540 5536 5531 5527 5523 5518 5513 5507 5501 5495 5488 5481 5473 5465 5456 5447 5438 5429 5420 5410 5401 5392 5384 5376 5368 5361 5355 5349
5558 5557 5557 5556 5555 5554 5553 5551 5549 5547 5545 5542 5540 5536 5533 5529 5525 5521 5517 5512 5507 5502 5496 5490 5484 5477 5469 5461 5453 5445 5436 5427 5418 5409 5400 5391 5382 5374 5366 5358 5351 5345 5339
5547 5547 5547 5546 5545 5544 5543 5541 5539 5537 5535 5532 5529 5526 5523 5519 5515 5511 5506 5502 5497 5491 5486 5480 5473 5465 5458 5450 5442 5433 5424 5416 5407 5398 5390 5381 5373 5364 5357 5349 5342 5336 5330
5537 5537 5536 5536 5535 5534 5532 5531 5529 5527 5524 5522 5519 5516 5512 5508 5505 5500 5496 5491 5486 5481 5475 5469 5462 5454 5447 5439 5430 5422 5413 5405 5396 5388 5380 5372 5364 5356 5348 5341 5334 5328 5322
5527 5526 5526 5525 5524 5523 5522 5520 5518 5516 5514 5511 5508 5505 5502 5498 5494 5490 5485 5481 5475 5470 5464 5458 5451 5444 5436 5428 5419 5411 5402 5394 5386 5378 5370 5363 5355 5348 5340 5333 5327 5320 5314